GONETS-M 20 (47227 NORAD) Tracking and Keplerian Element Data

This shows tracking and keplerian element data for the satellite.

Feedback or suggestion? Click here.




ElementValue
Catalog47227
NameGONETS-M 20
Epoch Orbit1055
Epoch Day56.99588483
Epoch Year2021
RAAN66.5237
Inclination82.5009
Eccentricity0.002196
Argument of Perigee88.9726
Mean Anonmoly271.3874
Mean Motion12.42882977
Decay Rate2.4E-07
L11 47227U 20091A 21056.99588483 .00000024 00000-0 10000-3 0 9992
L22 47227 82.5009 66.5237 0021960 88.9726 271.3874 12.42882977 10558

Live tracking and technical data element details for GONETS-M 20 (NORAD 47227). GONETS-M 20 can be tracked NOW for your location showing map with azimuth and elevation plus other details from your city location.

Track the satellite on the map from your city or location and see movement details for azimuth, elevation, latitude, longitude, range, height, and movement on the map or in text.







IsCatalogInMostPopularTable: catalog: 47227, numindb: 30
Update: records affected: 1



GetName: 47227 GONETS-M 20

Hit Count: updated at: Sat, 27 Feb 2021 04:33:55 GMT